www.pogodaiklimat.ru
Время
(UTC), дата
10 26.07
11 26.07
12 26.07
13 26.07
14 26.07
15 26.07
16 26.07
17 26.07
18 26.07
19 26.07
20 26.07
21 26.07
22 26.07
23 26.07
00 27.07
01 27.07
02 27.07
03 27.07
04 27.07
05 27.07
06 27.07
07 27.07
08 27.07
09 27.07
10 27.07
11 27.07
12 27.07
13 27.07
14 27.07
15 27.07
16 27.07
17 27.07
18 27.07
19 27.07
20 27.07
21 27.07
22 27.07
23 27.07
00 28.07
01 28.07
02 28.07
03 28.07
04 28.07
05 28.07
06 28.07
07 28.07
08 28.07
09 28.07
10 28.07
11 28.07
12 28.07
13 28.07
14 28.07
15 28.07
16 28.07
17 28.07
18 28.07
19 28.07
20 28.07
21 28.07
22 28.07
23 28.07
00 29.07
01 29.07
02 29.07
03 29.07
04 29.07
05 29.07
06 29.07
07 29.07
08 29.07
09 29.07
10 29.07
11 29.07
12 29.07
13 29.07
14 29.07
15 29.07
16 29.07
17 29.07
18 29.07
19 29.07
20 29.07
21 29.07
22 29.07
23 29.07
00 30.07
01 30.07
02 30.07
03 30.07
04 30.07
05 30.07
06 30.07
07 30.07
08 30.07
09 30.07
10 30.07
11 30.07
12 30.07
13 30.07
14 30.07
15 30.07
16 30.07
17 30.07
18 30.07
19 30.07
20 30.07
21 30.07
22 30.07
23 30.07
00 31.07
01 31.07
02 31.07
03 31.07
04 31.07
05 31.07
06 31.07
07 31.07
08 31.07
09 31.07
10 31.07
11 31.07
12 31.07
13 31.07
14 31.07
18 31.07
19 31.07
20 31.07
21 31.07
22 31.07
23 31.07
00 1.08
01 1.08
02 1.08
03 1.08
04 1.08
05 1.08
06 1.08
07 1.08
08 1.08
09 1.08
10 1.08
11 1.08
12 1.08
13 1.08
14 1.08
15 1.08
16 1.08
17 1.08
18 1.08
19 1.08
20 1.08
21 1.08
22 1.08
23 1.08
00 2.08
01 2.08
02 2.08
03 2.08
04 2.08
05 2.08
06 2.08
07 2.08
08 2.08
09 2.08
10 2.08
11 2.08
Ветер
(напр.,м/с)
Видим. Явления Облачность Т
(С)
Тd
(С)
f
(%)
Тe
(С)
Тes
(С)
Комфортность P
(гПа)
Po
(гПа)
Тmin
(С)
Tmax
(С)
R
(мм)
R24
(мм)
S
(см)
ЮЗ 4 40 км 8/1 1200 м
[Cu hum Ac trans Cc]
+25.1 +15.1 54 +28 +33 жарко 1010.2 1009.6
ЮЗ 4 40 км 5/3 1230 м
[Cu med, cong Ac trans Ci sp]
+25.2 +14.6 52 +28 +34 жарко 1010.3 1009.7
ЮЗ 5 40 км 8/4 1350 м
[Cu Sc Ac trans Ci fib]
+26.9 +15.1 48 +30 +33 душно 1009.9 1009.3
ЮЗ 3 40 км 8/4 1320 м
[Cu Sc Ac trans Ci sp]
+27.3 +15.5 48 +30 +35 душно 1009.6 1009.0
ЮЗ 4 40 км 8/4 1350 м
[Cb cap Ac trans Ci sp]
+27.9 +14.6 44 +30 +33 жарко 1009.2 1008.6
Ю 4 40 км 8/4 1500 м
[Cb calv Ac trans Ci sp]
+27.2 +14.1 45 +29 +32 жарко 1009.0 1008.4
ЮЗ 5 40 км 8/5 1500 м
[Cb calv Ac trans Ci sp]
+27.5 +14.0 44 +30 +31 жарко 1008.9 1008.3
ЮВ 3 35 км гроза без осадков {ливн. дождь} 8/5 1500 м
[Cb calv Ac trans Ci sp]
+21.2 +17.3 78 +25 +26 комфорт 1009.1 1008.5
ЮЗ 1 30 км гроза без осадков {ливн. дождь} 8/5 1000 м
[Cb calv Ac As Ci sp]
+20.6 +17.1 80 +25 +25 комфорт 1009.3 1008.7 +19.7 +28.5 4
З 2-2
{2}
35 км в посл. час гроза {ливн. дождь} 3/1 1500 м
[Cb calv Ac trans Ci sp]
+20.1 +18.1 88 +24 +24 комфорт 1009.0 1008.4
ЮЗ 1 35 км местами туман поземный 9/1 1500 м
[Cb calv Ac trans Ci fib]
+19.2 +18.4 95 +22 +22 комфорт 1009.8 1009.2
ЮВ 1 30 км местами туман поземный {гроза, ливн. дождь} 9/0
[Ac trans Ci fib]
+18.9 +18.2 96 +22 +22 комфорт 1010.0 1009.4 0.0
ЮЗ 1 30 км местами туман поземный 9/1 2000 м
[Sc Ac trans]
+18.3 +17.7 96 +20 +20 тепло 1010.3 1009.7
ЮЗ 2 30 км 9/3 2000 м
[Sc Ac trans Ci fib]
+18.5 +17.2 92 +20 +20 тепло 1010.6 1010.0
Ю 2 30 км зарница {гроза, ливн. дождь} 9/0
[Ac trans]
+17.8 +16.6 93 +18 +18 тепло 1010.5 1009.9 0.0
ЮЗ 2-3
{4}
30 км 8/0
[Ac trans]
+17.3 +15.8 91 +18 +18 тепло 1010.3 1009.7
Ю 2-2
{3}
30 км 9/0
[Ac trans]
+17.3 +15.4 89 +18 +18 тепло 1010.3 1009.7
Ю 2 30 км 9/0
[As op]
+16.6 +15.1 91 +17 +17 тепло 1010.6 1010.0
Ю 3-4
{4}
25 км 9/0
[Ac As]
+16.8 +15.3 91 +17 +17 тепло 1010.6 1010.0
Ю 3-4
{5}
9000 м 9/0
[Ac trans]
+17.5 +15.9 90 +17 +18 тепло 1010.5 1009.9
Ю 4 8000 м 8/3 300 м
[St Ac trans]
+18.1 +16.2 89 +18 +19 тепло 1010.6 1010.0 +16.5 +21.0 0.0
ЮЗ 4-6
{7}
7000 м дымка 9/9 360 м
[Sc]
+18.5 +16.2 86 +19 +20 тепло 1011.0 1010.4
ЮЗ 4 7000 м в посл. час дождь 9/6 360 м
[Cu Sc Ac trans]
+19.0 +16.3 84 +20 +22 тепло 1011.1 1010.5
Ю 6 7000 м дымка {дождь} 9/9 400 м
[Cu Sc]
+19.3 +15.9 81 +21 +21 комфорт 1011.5 1010.9 0.0
ЮЗ 6 9000 м в посл. час ливневой дождь 9/3 570 м
[Cu med, cong Ac trans Ci fib]
+21.6 +16.0 70 +25 +27 комфорт 1011.5 1010.9
ЮЗ 4
{8}
12 км 9/5 870 м
[Cu med, cong Ac trans Ci fib]
+22.5 +14.3 60 +26 +29 жарко 1011.5 1010.9
ЮЗ 6 14 км {ливн. дождь, дождь} 9/3 1110 м
[Cu med, cong Ci fib]
+23.3 +14.2 57 +27 +30 душно 1011.4 1010.8 0.0
ЮЗ 6 18 км 9/3 1260 м
[Cu med, cong Ci fib]
+24.5 +13.6 51 +27 +30 жарко 1010.9 1010.3
Ю 5 20 км 9/5 1300 м
[Cu med, cong Ci fib]
+24.7 +13.6 50 +27 +29 жарко 1010.5 1009.9
ЮЗ 5 20 км 9/4 1380 м
[Cu med, cong Ci fib]
+25.8 +13.8 47 +28 +30 жарко 1010.1 1009.5
ЮЗ 5 16 км 8/3 1350 м
[Cu med, cong Ac trans Ci fib]
+24.5 +14.5 54 +27 +28 жарко 1010.1 1009.5
З 6 35 км 9/1 750 м
[Cb cap Ac As]
+20.1 +13.1 64 +22 +22 комфорт 1010.4 1009.8
ЮЗ 2 40 км 10/1 1000 м
[Cu hum Ac As]
+20.2 +12.9 63 +23 +23 комфорт 1010.2 1009.6 +18.2 +25.8
Ю 3 40 км 10/0
[Ac As]
+19.3 +13.9 71 +21 +21 комфорт 1010.3 1009.7
Ю 4 40 км в посл. час дождь 10/3 1500 м
[Sc Ac As]
+19.4 +14.6 74 +21 +21 комфорт 1010.4 1009.8
ЮЗ 3 35 км слаб. дождь 9/3 1500 м
[Sc Ac As]
+18.2 +14.0 76 +19 +19 тепло 1010.4 1009.8 0.0
ЮЗ 3 40 км в посл. час дождь 10/1 1500 м
[Sc Ac As]
+17.8 +13.2 74 +18 +18 тепло 1010.4 1009.8
Ю 3 35 км слаб. дождь 10/0
[Ac As]
+17.4 +13.2 76 +17 +17 тепло 1010.6 1010.0
Ю 2 35 км в посл. час дождь 9/1 1500 м
[Sc Ac As]
+16.6 +13.8 84 +17 +17 тепло 1010.4 1009.8 0.0
ЮВ 3-3
{3}
30 км 4/4 900 м
[Sc Ac trans]
+16.1 +13.9 87 +16 +16 тепло 1009.8 1009.2
Ю 3-3
{4}
22 км 8/0
[Ac trans]
+15.3 +14.1 93 +15 +15 тепло 1009.5 1008.9
Ю 3 17 км 4/4 2000 м
[Sc]
+14.7 +13.8 94 +14 +14 тепло 1009.4 1008.8
Ю 2 15 км 9/9 1500 м
[Sc]
+15.3 +14.3 94 +15 +15 тепло 1009.4 1008.8
ЮЗ 3 15 км 8/8 1350 м
[Sc Ci sp]
+16.3 +14.5 89 +16 +16 тепло 1009.2 1008.6
ЮЗ 4 12 км 6/3 300 м
[Cu Sc Ci sp]
+17.0 +14.7 86 +17 +18 тепло 1009.2 1008.6 +14.5 +20.1 0.0
ЮЗ 6 15 км 9/9 450 м
[Cu Sc]
+18.0 +14.5 80 +17 +18 тепло 1009.4 1008.8
ЮЗ 6 18 км 8/5 630 м
[Cu med, cong Ci sp]
+19.6 +14.2 71 +21 +22 комфорт 1009.3 1008.7
ЮЗ 6 22 км 9/5 800 м
[Cu med, cong Ac trans Ci sp]
+20.3 +14.1 68 +22 +24 комфорт 1009.1 1008.5
ЮЗ 6-9
{11}
22 км 9/6 800 м
[Cu med, cong Ac trans Ci sp]
+21.3 +14.4 65 +24 +26 комфорт 1008.9 1008.3
ЮЗ 6 25 км 8/8 870 м
[Cu Sc]
+22.0 +14.6 63 +25 +27 комфорт 1008.6 1008.0
ЮЗ 7 5000 м слаб. ливневой дождь 10/9 870 м
[Cb cap]
+17.9 +15.8 88 +17 +17 тепло 1008.8 1008.2 0.2
Ю 4 40 км в посл. час ливневой дождь 6/4 870 м
[Cu Sc Ac trans]
+19.6 +16.0 80 +22 +26 комфорт 1008.4 1007.8
ЮЗ 7-10
{10}
40 км 3/3 870 м
[Cu Sc]
+22.5 +14.9 62 +26 +28 жарко 1008.1 1007.5
ЮЗ 9 45 км {ливн. дождь} 4/4 1350 м
[Cu Sc Ac trans]
+23.7 +12.1 48 +25 +26 комфорт 1007.8 1007.2 4
ЮЗ 7 45 км 8/4 1440 м
[Cu Sc Ac trans Ci sp]
+23.1 +11.6 48 +25 +26 комфорт 1007.7 1007.1
ЮЗ 7 45 км 9/9 1500 м
[Cu med, cong Ac trans]
+22.1 +12.2 53 +24 +25 комфорт 1008.0 1007.4
ЮЗ 9 40 км {ливн. дождь} 9/6 1000 м
[Cu Sc Ac trans]
+21.3 +11.8 55 +23 +23 комфорт 1008.3 1007.7 +16.7 +24.4
ЮЗ 4 40 км в посл. час ливневой дождь 9/5 1440 м
[Cu Sc Ac trans]
+19.9 +12.7 63 +22 +22 комфорт 1008.5 1007.9
З 3 40 км в посл. час ливневой дождь 9/9 1020 м
[Cb cap]
+15.9 +14.3 90 +15 +15 тепло 1009.4 1008.8
ЮЗ 4 35 км в посл. час ливневой дождь 8/4 1500 м
[Sc Ac trans]
+15.8 +13.7 87 +15 +15 тепло 1009.4 1008.8 0.7
ЮЗ 3 35 км 8/5 1230 м
[Cu Sc Ac trans]
+15.4 +13.6 89 +15 +15 тепло 1009.1 1008.5
Ю 2 35 км 4/1 1260 м
[Cu hum Ac trans]
+14.2 +12.7 91 +14 +14 тепло 1008.9 1008.3
Ю 4 35 км {ливн. дождь} 6/0
[Ac trans]
+15.2 +12.3 83 +14 +14 тепло 1008.4 1007.8 0.7
Ю 4-5
{6}
35 км в посл. час ливневой дождь 3/0
[Ac trans]
+14.9 +11.6 81 +14 +14 тепло 1007.8 1007.2
Ю 4-7
{8}
35 км 4/0
[Ac trans]
+15.7 +11.6 77 +15 +15 тепло 1007.4 1006.8
ЮЗ 5 35 км {ливн. дождь} 4/0
[Ac trans]
+16.1 +11.5 74 +15 +15 тепло 1007.4 1006.8 0.0
ЮЗ 6 40 км 8/3 1050 м
[Cu med, cong Ac trans]
+16.1 +11.6 75 +15 +15 тепло 1007.6 1007.0
ЮЗ 5-7
{11}
40 км 3/3 1140 м
[Cu Sc]
+15.9 +11.5 75 +15 +15 тепло 1007.8 1007.2
ЮЗ 7 40 км {ливн. дождь} 1/1 600 м
[Cu med, cong Ac trans]
+16.6 +11.3 71 +15 +16 тепло 1007.7 1007.1 +14.0 +21.4 0.7
ЮЗ 9-13
{13}
40 км 5/5 800 м
[Cu hum Ci fib]
+17.3 +11.3 68 +16 +16 тепло 1007.8 1007.2
ЮЗ 9-12
{14}
40 км 5/5 1020 м
[Cu Sc]
+17.5 +9.8 61 +16 +17 тепло 1008.0 1007.4
ЮЗ 9 40 км 5/5 1050 м
[Cu med, cong]
+19.5 +10.7 57 +20 +20 тепло 1008.1 1007.5
ЮЗ 10-14
{17}
40 км 5/5 1050 м
[Cu med, cong Ac trans Ci fib]
+18.4 +9.1 55 +18 +18 тепло 1008.1 1007.5
ЮЗ 10-13
{19}
40 км 6/6 1320 м
[Cu Sc Ci fib]
+20.0 +9.8 52 +21 +21 комфорт 1008.3 1007.7
З 6 40 км в посл. час ливневой дождь 4/4 1200 м
[Cu Sc]
+19.4 +10.4 56 +20 +24 тепло 1008.5 1007.9 0.0
З 9 40 км в посл. час ливневой дождь 8/8 900 м
[Cu Sc Ac trans]
+18.2 +8.2 52 +17 +18 тепло 1009.0 1008.4
ЮЗ 9-13
{14}
30 км осадки на расстоянии 5/4 900 м
[Cb cap Ac trans]
+20.4 +9.9 51 +21 +22 комфорт 1008.8 1008.2
ЮЗ 9 40 км {ливн. дождь} 6/1 1350 м
[Cu med, cong Ac trans]
+20.8 +9.3 48 +22 +22 комфорт 1008.9 1008.3 0.0
ЮЗ 8-11
{14}
40 км 8/5 1200 м
[Cu Sc Ac trans Ci fib]
+19.7 +9.2 51 +20 +20 тепло 1009.3 1008.7
ЮЗ 8 40 км 5/4 1200 м
[Cu Sc Ac trans]
+19.8 +9.7 52 +20 +21 тепло 1009.3 1008.7
ЮЗ 7 35 км {ливн. дождь} 6/4 1000 м
[Cu med, cong Ac trans]
+19.4 +10.2 55 +20 +20 тепло 1009.4 1008.8 +15.8 +21.9
ЮЗ 5-7
{9}
35 км 6/4 1440 м
[Cu Sc Ac trans Ci fib]
+17.8 +10.6 63 +17 +17 тепло 1009.5 1008.9
З 4-6
{7}
30 км 3/3 1500 м
[Cu Sc Ac trans]
+15.4 +10.1 71 +14 +14 тепло 1010.0 1009.4
ЮЗ 4 30 км 4/0
[Ci fib]
+14.3 +9.5 73 +13 +13 тепло 1009.9 1009.3
ЮЗ 3-4
{5}
30 км 3/0
[Ci fib]
+13.8 +8.9 72 +13 +13 тепло 1009.9 1009.3
ЮЗ 3-4
{4}
30 км 1/0
[Ci fib]
+13.4 +9.0 75 +12 +12 тепло 1009.9 1009.3
ЮЗ 3 30 км ясно +13.1 +8.9 76 +12 +12 прохладно 1009.4 1008.8
ЮЗ 3-4
{5}
30 км 1/0
[Ac trans]
+11.5 +8.2 80 +10 +10 прохладно 1009.2 1008.6
ЮЗ 4-7
{7}
30 км 1/0
[Ci fib]
+12.7 +8.6 76 +11 +11 по сезону 1009.1 1008.5
ЮЗ 4 28 км 1/0
[Ci fib]
+12.4 +8.6 78 +10 +10 холодно 1009.0 1008.4
ЮЗ 4-6
{6}
25 км 3/0
[Ci sp]
+12.7 +9.1 79 +11 +11 прохладно 1008.9 1008.3
ЮЗ 4-5
{6}
28 км 5/0
[Ci fib]
+13.2 +9.7 79 +12 +12 по сезону 1008.9 1008.3
ЮЗ 5 30 км 6/0
[Ci sp]
+15.0 +10.2 73 +14 +15 по сезону 1008.9 1008.3 +11.2 +19.3
ЮЗ 7-9
{9}
30 км 4/0
[Ci fib]
+17.0 +10.6 66 +16 +17 тепло 1008.8 1008.2
ЮЗ 6-8
{8}
30 км 5/0
[Ci fib]
+19.0 +10.9 59 +19 +22 тепло 1008.7 1008.1
ЮЗ 7 30 км 9/0
[Ci fib]
+19.8 +8.4 48 +20 +23 тепло 1008.7 1008.1
ЮЗ 8 35 км 9/1 1500 м
[Cu hum Cs]
+20.7 +8.8 46 +22 +23 комфорт 1008.5 1007.9
З 7 35 км 9/0
[Ac trans Ci sp]
+22.3 +9.0 43 +24 +27 комфорт 1007.8 1007.2
ЮЗ 8 40 км 9/5 1500 м
[Sc Ci sp]
+22.5 +9.5 44 +24 +25 комфорт 1007.6 1007.0
З 6 30 км 8/3 1500 м
[Cu hum Ac trans Ci sp]
+23.1 +10.6 45 +25 +27 комфорт 1007.1 1006.5
З 5 35 км в посл. час ливневой дождь 9/4 1200 м
[Cu Sc Ac As]
+22.6 +12.0 51 +25 +26 комфорт 1006.7 1006.1
ЮЗ 4 30 км в посл. час ливневой дождь 9/3 1350 м
[Cu Sc Ac As Ci fib]
+23.2 +12.3 50 +26 +28 жарко 1006.3 1005.7 0.0
ЮЗ 2 30 км 9/6 1350 м
[Cu Sc Ac trans Ci fib]
+23.6 +12.3 49 +25 +27 комфорт 1005.6 1005.0
ЮЗ 2 40 км 9/9 1350 м
[Cu Sc]
+23.4 +12.1 49 +26 +26 жарко 1005.1 1004.5
Ю 3 30 км {ливн. дождь} 8/5 2000 м
[Sc Ac trans]
+21.7 +12.8 57 +24 +24 комфорт 1004.4 1003.8 +15.1 +24.2
ЮВ 2 45 км 9/9 1020 м
[Cu Sc]
+22.2 +12.7 55 +25 +25 комфорт 1004.0 1003.4
Ю 2 40 км в посл. час ливневой дождь 9/9 1050 м
[Cu Sc]
+18.8 +15.0 79 +20 +20 по сезону 1004.1 1003.5
З 6 15 км слаб. ливневой дождь 10/9 450 м
[Cb cap]
+17.5 +15.0 85 +17 +17 по сезону 1005.4 1004.8 0.4
ЮЗ 2 35 км в посл. час ливневой дождь 10/3 1500 м
[Sc Ac As]
+16.3 +15.4 94 +16 +16 по сезону 1005.3 1004.7
Ю 3-4
{4}
25 км в посл. час ливневой дождь 5/0
[Ac trans]
+16.1 +15.2 94 +16 +16 по сезону 1005.2 1004.6
Ю 4 25 км {ливн. дождь} 4/1 1000 м
[Cu hum Ac trans]
+15.7 +14.7 94 +15 +15 по сезону 1005.1 1004.5 2
Ю 4-6
{7}
40 км 1/1 1350 м
[Cu hum]
+14.9 +12.6 86 +14 +14 по сезону 1004.5 1003.9
Ю 5 40 км в посл. час ливневой дождь 9/9 800 м
[Cu Sc]
+15.3 +12.9 86 +14 +14 по сезону 1004.1 1003.5
ЮЗ 6 40 км {ливн. дождь} 9/9 1020 м
[Sc]
+15.3 +11.8 80 +14 +14 по сезону 1003.7 1003.1 0.0
Ю 5 40 км 9/9 1260 м
[Sc]
+15.1 +11.5 79 +14 +14 по сезону 1003.1 1002.5
ЮЗ 6 35 км 8/6 900 м
[Sc Ac trans]
+15.2 +11.6 79 +14 +14 по сезону 1002.8 1002.2
Ю 7 40 км {ливн. дождь} 6/5 600 м
[Cu Sc Ac trans]
+15.9 +12.0 78 +14 +15 по сезону 1002.7 1002.1 +14.5 +22.5 2
ЮЗ 7 13 км слаб. ливневой дождь 10/9 480 м
[Cu Sc]
+15.4 +12.6 83 +14 +14 по сезону 1002.9 1002.3
ЮЗ 10-14
{14}
35 км в посл. час ливневой дождь 9/9 500 м
[Cu med, cong]
+16.4 +12.3 77 +15 +15 тепло 1002.8 1002.2
ЮЗ 10 40 км в посл. час ливневой дождь 9/9 600 м
[Cu Sc]
+17.7 +12.6 72 +16 +17 прохладно 1002.8 1002.2 0.0
ЮЗ 10 40 км осадки на расстоянии 10/9 660 м
[Cu Sc]
+18.1 +12.5 70 +17 +17 по сезону 1002.9 1002.3
ЮЗ 11 30 км в посл. час ливневой дождь 9/8 700 м
[Cu Sc Ac trans]
+19.0 +13.1 69 +19 +19 по сезону 1003.1 1002.5
З 11 4000 м слаб. ливневой дождь 10/9 420 м
[Cb calv]
+16.8 +14.0 84 +15 +15 холодно 1004.4 1003.8 0.1
ЮЗ 10 10 км слаб. ливневой дождь 9/9 660 м
[Cb calv]
+18.1 +14.5 79 +17 +17 холодно 1004.6 1004.0
ЮЗ 7-10
{14}
20 км в посл. час ливневой дождь 9/9 630 м
[Cb calv]
+17.9 +14.5 80 +17 +17 холодно 1005.4 1004.8
ЮЗ 5 45 км в посл. час ливневой дождь {гроза} 5/4 900 м
[Cb cap Ci fib]
+17.5 +14.3 81 +17 +17 прохладно 1006.5 1005.9 11
З 5 45 км в посл. час ливневой дождь 8/6 750 м
[Cu Sc Ci fib]
+17.0 +14.5 85 +16 +16 холодно 1006.9 1006.3
З 5 45 км 6/6 750 м
[Cu Sc]
+16.1 +13.8 86 +15 +15 холодно 1007.3 1006.7
ЮЗ 3 45 км {ливн. дождь} 6/6 660 м
[Cu Sc]
+15.4 +13.5 88 +15 +15 прохладно 1007.6 1007.0 0.0
ЮЗ 4-6
{6}
45 км в посл. час ливневой дождь 6/6 800 м
[Cu med, cong]
+15.8 +13.8 88 +15 +15 прохладно 1008.0 1007.4
З 5-6
{8}
45 км 8/8 750 м
[Sc]
+15.5 +13.3 87 +14 +14 прохладно 1008.0 1007.4
ЮЗ 3 45 км {ливн. дождь} 1/1 1050 м
[Sc]
+13.7 +12.8 94 +12 +12 по сезону 1007.7 1007.1 0.0
ЮЗ 3-5
{5}
30 км 5/5 480 м
[Sc]
+13.9 +13.1 95 +13 +13 по сезону 1007.4 1006.8
ЮЗ 3-5
{5}
25 км 9/9 600 м
[Sc]
+14.8 +13.7 93 +14 +14 тепло 1007.6 1007.0
ЮЗ 4 20 км в посл. час ливневой дождь 9/9 210 м
[Sc]
+14.8 +13.7 93 +14 +14 по сезону 1007.3 1006.7 0.0
ЮЗ 2 12 км 9/3 900 м
[Sc Ac trans]
+14.3 +13.5 95 +14 +14 по сезону 1007.6 1007.0
ЮЗ 4 10 км 8/5 150 м
[Cu Sc Ac trans]
+14.4 +13.5 94 +13 +13 по сезону 1007.6 1007.0
ЮЗ 4 9000 м {ливн. дождь} 9/9 100 м
[Cu Sc]
+14.9 +13.8 93 +14 +14 по сезону 1007.8 1007.2 +13.2 +17.5
ЮЗ 4 10 км 9/9 180 м
[Cu Sc]
+15.6 +13.9 90 +15 +15 по сезону 1007.7 1007.1
ЮЗ 4 12 км 9/9 240 м
[Cu Sc]
+16.4 +14.3 87 +16 +16 тепло 1007.8 1007.2
ЮЗ 3 10 км в посл. час ливневой дождь 8/5 270 м
[Cu Sc Ac trans]
+17.6 +14.8 84 +18 +21 по сезону 1007.6 1007.0 0.2
ЮЗ 4 15 км 8/5 540 м
[Cu med, cong Ac trans]
+18.7 +14.3 76 +19 +22 по сезону 1007.3 1006.7
ЮЗ 7 15 км 8/5 800 м
[Cb calv Ac trans]
+20.4 +13.5 65 +22 +24 комфорт 1006.7 1006.1
З 5 8000 м гроза, ливневой дождь 9/9 400 м
[Cb calv]
+16.1 +14.9 93 +15 +16 холодно 1007.5 1006.9 5
З 4 25 км слаб. ливневой дождь, в посл. час гроза 10/10 210 м
[Sc diur, vesp]
+16.4 +14.8 90 +16 +16 холодно 1008.1 1007.5
З 3 10 км слаб. ливневой дождь 9/9 210 м
[Cb calv]
+15.9 +14.6 92 +15 +16 холодно 1008.0 1007.4
СЗ 4 12 км слаб. ливневой дождь {гроза} 10/10 240 м
[Cu Sc]
+16.7 +15.2 91 +16 +16 холодно 1008.1 1007.5 4
З 4 45 км в посл. час ливневой дождь 9/9 240 м
[Cu Sc]
+17.0 +14.8 87 +17 +17 прохладно 1008.1 1007.5
З 4 45 км в посл. час ливневой дождь 9/8 300 м
[Cu Sc Ac trans Ci fib]
+17.4 +14.7 84 +17 +17 прохладно 1008.0 1007.4
З 4 45 км {гроза, ливн. дождь} 9/3 300 м
[Cu Sc Ac As Ci fib]
+17.1 +14.9 87 +17 +17 прохладно 1008.3 1007.7 +14.9 +21.1 0.0
З 4 45 км осадки на расстоянии 9/4 450 м
[Cb calv Ac trans Ci fib]
+16.5 +14.8 90 +16 +16 холодно 1009.0 1008.4
З 3 45 км 9/5 450 м
[Cu Sc Ac trans Ci fib]
+15.8 +14.5 92 +15 +15 холодно 1009.5 1008.9
З 3 45 км 9/8 1500 м
[Sc Ac trans]
+14.9 +13.0 88 +14 +14 прохладно 1009.8 1009.2
З 3-4
{5}
45 км 5/5 1500 м
[Sc]
+13.4 +11.6 89 +12 +12 холодно 1010.1 1009.5
З 3 45 км 6/3 2000 м
[Sc Ci fib]
+11.9 +10.5 91 +10 +10 холодно 1010.2 1009.6
ЮЗ 3 45 км 3/0
[Ci fib]
+11.1 +10.1 94 +9 +9 холодно 1010.1 1009.5
З 3-5
{5}
45 км 4/4 1500 м
[Sc]
+11.7 +10.4 92 +10 +10 прохладно 1010.3 1009.7
З 3-4
{4}
45 км 9/9 2000 м
[Sc]
+11.8 +10.6 92 +10 +10 по сезону 1010.4 1009.8
ЮЗ 3 45 км 9/9 2000 м
[Sc]
+11.4 +10.4 94 +9 +9 холодно 1010.5 1009.9
ЮЗ 3-4
{4}
45 км 9/9 2000 м
[Sc]
+12.0 +10.8 92 +10 +10 прохладно 1010.8 1010.2
З 4 40 км 9/9 450 м
[Cu Sc]
+12.9 +11.3 90 +11 +11 по сезону 1011.2 1010.6
З 4 40 км 9/9 600 м
[Cu Sc]
+13.6 +11.7 88 +12 +12 прохладно 1011.4 1010.8 +10.8 +17.1
З 5 40 км 9/9 750 м
[Cu Sc]
+14.7 +11.5 81 +13 +13 по сезону 1011.6 1011.0
З 6 40 км 9/9 500 м
[Cu Sc]
+16.2 +12.0 76 +15 +15 тепло 1012.1 1011.5
З 7 40 км 8/8 630 м
[Cu Sc]
+17.1 +11.1 68 +16 +17 прохладно 1012.0 1011.4
З 5 40 км слаб. ливневой дождь 9/9 840 м
[Cu Sc]
+16.8 +10.1 65 +16 +17 прохладно 1012.2 1011.6
З 6 40 км слаб. ливневой дождь 9/9 900 м
[Cu Sc]
+16.9 +11.3 70 +16 +17 прохладно 1012.4 1011.8
Местоположение метеостанции Бремен (Германия): широта 53.05 долгота 8.80 высота над уровнем моря 3 м.
В архиве по умолчанию представлена погода в Бремене за последнюю неделю. Архивные данные за месяц целиком и за предыдущие месяцы, начиная с января 2011 года, Вы можете получить, выбрав интересующий диапазон дат из раскрывающегося списка и нажав кнопку "Найти!".
*Определитесь, кто Вы:
Внимание! Время в таблицах - всемирное. Для получения местного времени необходимо прибавить поправку, которая равна 1 ч.
Смотрите также архив погоды в соседних городах и на ближайших метеорологических станциях:
Партнеры нашего сайта:      
Пояснения к столбцам:
  • Ветер - указаны скорость ветра в м/с - средняя за 10 мин, порывы в срок и между сроками (в фигурных скобках) и направление, откуда дует ветер: С - северный,
  • СВ - северо-восточный, В - восточный, ЮВ - юго-восточный, Ю - южный, ЮЗ - юго-западный, З - западный, СЗ - северо-западный.
  • Видимость - горизонтальная дальность видимости в метрах или километрах. При видимости от 1 до 10 км при отсутствии осадков обычно наблюдается дымка, при ухудшении видимости до 1 км и менее - туман. В сухую погоду видимость может ухудшаться дымом, пылью или мглою.
  • Явления - указаны атмосферные явления, наблюдавшиеся в срок или в последний час перед сроком; фигурными скобками обозначены явления, наблюдавшиеся между сроками (за 1-3 часа до срока); квадратными скобками обозначены град или гололедные отложения с указанием их диаметра в мм.
  • Облачность - указаны через наклонную черту общая и нижняя облачность в баллах и высота нижней границы облаков в метрах; квадратными скобками обозначены формы облаков: Ci - перистые, Cs - перисто-слоистые, Cc - перисто-кучевые, Ac - высококучевые, As - высокослоистые, Sc - слоисто-кучевые, Ns - слоисто-дождевые, Cu - кучевые, Cb - кучево-дождевые. Подробнее классификацию облаков см. в Атласе облаков (PDF).
  • T - Температура воздуха - температура, измеренная на высоте 2 м над землей.
  • Td - Температура точки росы - температура, при понижении до которой содержащийся в воздухе водяной пар достигнет насыщения.
  • f - Относительная влажность воздуха - влажноcть воздуха, измеренная на высоте 2 м над землей.
  • Te - Эффективная температура - температура, которую ощущает одетый по сезону человек в тени. Характеристика душности погоды. При расчете учитывается влияние влажности воздуха и скорости ветра на теплоощущения человека.
  • Tes - Эффективная температура на солнце - температура, которую ощущает человек, с поправкой на солнечный нагрев. Характеристика знойности погоды. Зависит от высоты солнца над горизонтом, облачности и скорости ветра. Ночью, в пасмурную погоду, а также при ветре 12 м/с и более поправка равна нулю.
  • P - Атмосферное давление - приведенное к уровню моря атмосферное давление.
  • Po - Атмосферное давление - измеренное на уровне метеостанции атмосферное давление.
  • Tmin - Минимальная температура - минимум температуры воздуха на высоте 2 м над землей.
  • Tmax - Максимальная температура - максимум температуры воздуха на высоте 2 м над землей.
  • R - Количество осадков - Количество выпавших осадков за период времени, мм. При наведении курсора мыши на число - период времени, за который выпало указанное количество осадков.
  • R24 - Количество осадков - Количество выпавших осадков за 24 часа, мм.
  • S - Снежный покров - Высота снежного покрова, см. При наведении курсора мыши на число - состояние снежного покрова и степень покрытия местности в баллах.